Location: Kerberlivit
(48.2787°N, 4.5413°W)
Time: 19:55:55
(UTC+00:00)

STARLINK-1122 - Pass Details

Date: 18 February 2020
Orbit: 548 x 551 km, 53.0° (Epoch: 05 April)

Event Time Altitude Azimuth Distance (km) Brightness Sun altitude
Exits shadow 05:47:51 28° 241° (WSW) 1,063 4.6 -16.1°
Maximum altitude 05:50:00 87° 155° (SSE) 558 3.6 -15.8°
Drops below altitude 10° 05:54:11 10° 64° (ENE) 1,835 7.3 -15.1°
Sets 05:56:26 0° 64° (ENE) 2,732 8.4 -14.7°
